Year,Month,Day,Hour,Minute,Value (Times are PST for temperature in C)
2012,11,27,00,00,4.70
2012,11,27,00,01,4.70
2012,11,27,00,02,4.70
2012,11,27,00,03,4.70
2012,11,27,00,04,4.70
2012,11,27,00,05,4.70
2012,11,27,00,06,4.70
2012,11,27,00,07,4.70
2012,11,27,00,08,4.70
2012,11,27,00,09,4.80
2012,11,27,00,10,4.80
2012,11,27,00,11,4.80
2012,11,27,00,12,4.80
2012,11,27,00,13,4.80
2012,11,27,00,14,4.80
2012,11,27,00,15,4.80
2012,11,27,00,16,4.80
2012,11,27,00,17,4.80
2012,11,27,00,18,4.80
2012,11,27,00,19,4.80
2012,11,27,00,20,4.80
2012,11,27,00,21,4.80
2012,11,27,00,22,4.80
2012,11,27,00,23,4.80
2012,11,27,00,24,4.80
2012,11,27,00,25,4.90
2012,11,27,00,26,4.90
2012,11,27,00,27,4.90
2012,11,27,00,28,4.90
2012,11,27,00,29,5.00
2012,11,27,00,30,5.00
2012,11,27,00,31,5.00
2012,11,27,00,32,5.00
2012,11,27,00,33,5.10
2012,11,27,00,34,5.10
2012,11,27,00,35,5.10
2012,11,27,00,36,5.10
2012,11,27,00,37,5.20
2012,11,27,00,38,5.20
2012,11,27,00,39,5.20
2012,11,27,00,40,5.20
2012,11,27,00,41,5.20
2012,11,27,00,42,5.20
2012,11,27,00,43,5.20
2012,11,27,00,44,5.30
2012,11,27,00,45,5.30
2012,11,27,00,46,5.30
2012,11,27,00,47,5.30
2012,11,27,00,48,5.30
2012,11,27,00,49,5.30
2012,11,27,00,50,5.30
2012,11,27,00,51,5.30
2012,11,27,00,52,5.40
2012,11,27,00,53,5.40
2012,11,27,00,54,5.40
2012,11,27,00,55,5.40
2012,11,27,00,56,5.40
2012,11,27,00,57,5.40
2012,11,27,00,58,5.40
2012,11,27,00,59,5.30
2012,11,27,01,00,5.40
2012,11,27,01,01,5.40
2012,11,27,01,02,5.40
2012,11,27,01,03,5.40
2012,11,27,01,04,5.40
2012,11,27,01,05,5.50
2012,11,27,01,06,5.50
2012,11,27,01,07,5.50
2012,11,27,01,08,5.50
2012,11,27,01,09,5.60
2012,11,27,01,10,5.60
2012,11,27,01,11,5.60
2012,11,27,01,12,5.60
2012,11,27,01,13,5.60
2012,11,27,01,14,5.70
2012,11,27,01,15,5.70
2012,11,27,01,16,5.80
2012,11,27,01,17,5.80
2012,11,27,01,18,5.90
2012,11,27,01,19,5.90
2012,11,27,01,20,5.90
2012,11,27,01,21,5.90
2012,11,27,01,22,5.90
2012,11,27,01,23,5.90
2012,11,27,01,24,5.80
2012,11,27,01,25,5.80
2012,11,27,01,26,5.70
2012,11,27,01,27,5.60
2012,11,27,01,28,5.50
2012,11,27,01,29,5.40
2012,11,27,01,30,5.30
2012,11,27,01,31,5.30
2012,11,27,01,32,5.30
2012,11,27,01,33,5.30
2012,11,27,01,34,5.30
2012,11,27,01,35,5.30
2012,11,27,01,36,5.40
2012,11,27,01,37,5.50
2012,11,27,01,38,5.50
2012,11,27,01,39,5.60
2012,11,27,01,40,5.70
2012,11,27,01,41,5.70
2012,11,27,01,42,5.70
2012,11,27,01,43,5.80
2012,11,27,01,44,5.80
2012,11,27,01,45,5.90
2012,11,27,01,46,5.90
2012,11,27,01,47,6.00
2012,11,27,01,48,6.00
2012,11,27,01,49,6.00
2012,11,27,01,50,6.10
2012,11,27,01,51,6.10
2012,11,27,01,52,6.10
2012,11,27,01,53,6.10
2012,11,27,01,54,6.10
2012,11,27,01,55,6.20
2012,11,27,01,56,6.20
2012,11,27,01,57,6.20
2012,11,27,01,58,6.20
2012,11,27,01,59,6.20
2012,11,27,02,00,6.20
2012,11,27,02,01,6.20
2012,11,27,02,02,6.20
2012,11,27,02,03,6.20
2012,11,27,02,04,6.20
2012,11,27,02,05,6.20
2012,11,27,02,06,6.20
2012,11,27,02,07,6.20
2012,11,27,02,08,6.10
2012,11,27,02,09,6.10
2012,11,27,02,10,6.10
2012,11,27,02,11,6.00
2012,11,27,02,12,6.00
2012,11,27,02,13,6.00
2012,11,27,02,14,6.00
2012,11,27,02,15,6.00
2012,11,27,02,16,6.00
2012,11,27,02,17,6.00
2012,11,27,02,18,6.00
2012,11,27,02,19,6.00
2012,11,27,02,20,6.00
2012,11,27,02,21,6.00
2012,11,27,02,22,6.00
2012,11,27,02,23,6.00
2012,11,27,02,24,6.00
2012,11,27,02,25,6.10
2012,11,27,02,26,6.10
2012,11,27,02,27,6.10
2012,11,27,02,28,6.10
2012,11,27,02,29,6.10
2012,11,27,02,30,6.10
2012,11,27,02,31,6.10
2012,11,27,02,32,6.10
2012,11,27,02,33,6.10
2012,11,27,02,34,6.10
2012,11,27,02,35,6.20
2012,11,27,02,36,6.20
2012,11,27,02,37,6.20
2012,11,27,02,38,6.20
2012,11,27,02,39,6.20
2012,11,27,02,40,6.20
2012,11,27,02,41,6.10
2012,11,27,02,42,6.10
2012,11,27,02,43,6.00
2012,11,27,02,44,6.00
2012,11,27,02,45,6.00
2012,11,27,02,46,5.90
2012,11,27,02,47,5.90
2012,11,27,02,48,6.00
2012,11,27,02,49,6.00
2012,11,27,02,50,6.10
2012,11,27,02,51,6.10
2012,11,27,02,52,6.10
2012,11,27,02,53,6.10
2012,11,27,02,54,6.10
2012,11,27,02,55,6.10
2012,11,27,02,56,6.10
2012,11,27,02,57,6.00
2012,11,27,02,58,6.10
2012,11,27,02,59,6.10
2012,11,27,03,00,6.20
2012,11,27,03,01,6.30
2012,11,27,03,02,6.30
2012,11,27,03,03,6.40
2012,11,27,03,04,6.50
2012,11,27,03,05,6.60
2012,11,27,03,06,6.70
2012,11,27,03,07,6.80
2012,11,27,03,08,6.90
2012,11,27,03,09,6.90
2012,11,27,03,10,7.00
2012,11,27,03,11,7.10
2012,11,27,03,12,7.10
2012,11,27,03,13,7.20
2012,11,27,03,14,7.30
2012,11,27,03,15,7.40
2012,11,27,03,16,7.50
2012,11,27,03,17,7.60
2012,11,27,03,18,7.70
2012,11,27,03,19,7.70
2012,11,27,03,20,7.70
2012,11,27,03,21,7.70
2012,11,27,03,22,7.80
2012,11,27,03,23,7.80
2012,11,27,03,24,7.90
2012,11,27,03,25,7.90
2012,11,27,03,26,8.00
2012,11,27,03,27,7.90
2012,11,27,03,28,7.90
2012,11,27,03,29,7.80
2012,11,27,03,30,7.60
2012,11,27,03,31,7.50
2012,11,27,03,32,7.40
2012,11,27,03,33,7.30
2012,11,27,03,34,7.20
2012,11,27,03,35,7.20
2012,11,27,03,36,7.10
2012,11,27,03,37,7.10
2012,11,27,03,38,7.00
2012,11,27,03,39,7.00
2012,11,27,03,40,7.00
2012,11,27,03,41,6.90
2012,11,27,03,42,6.90
2012,11,27,03,43,6.90
2012,11,27,03,44,6.90
2012,11,27,03,45,6.80
2012,11,27,03,46,6.80
2012,11,27,03,47,6.80
2012,11,27,03,48,6.80
2012,11,27,03,49,6.80
2012,11,27,03,50,6.80
2012,11,27,03,51,6.80
2012,11,27,03,52,6.80
2012,11,27,03,53,6.80
2012,11,27,03,54,6.70
2012,11,27,03,55,6.70
2012,11,27,03,56,6.70
2012,11,27,03,57,6.70
2012,11,27,03,58,6.70
2012,11,27,03,59,6.70
2012,11,27,04,00,6.70
2012,11,27,04,01,6.70
2012,11,27,04,02,6.70
2012,11,27,04,03,6.70
2012,11,27,04,04,6.70
2012,11,27,04,05,6.70
2012,11,27,04,06,6.70
2012,11,27,04,07,6.70
2012,11,27,04,08,6.70
2012,11,27,04,09,6.70
2012,11,27,04,10,6.70
2012,11,27,04,11,6.70
2012,11,27,04,12,6.70
2012,11,27,04,13,6.70
2012,11,27,04,14,6.70
2012,11,27,04,15,6.70
2012,11,27,04,16,6.80
2012,11,27,04,17,6.80
2012,11,27,04,18,6.80
2012,11,27,04,19,6.80
2012,11,27,04,20,6.70
2012,11,27,04,21,6.80
2012,11,27,04,22,6.80
2012,11,27,04,23,6.80
2012,11,27,04,24,6.80
2012,11,27,04,25,6.90
2012,11,27,04,26,6.90
2012,11,27,04,27,6.90
2012,11,27,04,28,7.00
2012,11,27,04,29,7.00
2012,11,27,04,30,7.00
2012,11,27,04,31,7.00
2012,11,27,04,32,7.00
2012,11,27,04,33,7.00
2012,11,27,04,34,7.00
2012,11,27,04,35,7.00
2012,11,27,04,36,7.00
2012,11,27,04,37,7.00
2012,11,27,04,38,6.90
2012,11,27,04,39,6.90
2012,11,27,04,40,6.90
2012,11,27,04,41,6.90
2012,11,27,04,42,6.90
2012,11,27,04,43,6.90
2012,11,27,04,44,6.90
2012,11,27,04,45,6.90
2012,11,27,04,46,6.80
2012,11,27,04,47,6.80
2012,11,27,04,48,6.80
2012,11,27,04,49,6.80
2012,11,27,04,50,6.80
2012,11,27,04,51,6.80
2012,11,27,04,52,6.80
2012,11,27,04,53,6.80
2012,11,27,04,54,6.80
2012,11,27,04,55,6.80
2012,11,27,04,56,6.80
2012,11,27,04,57,6.80
2012,11,27,04,58,6.80
2012,11,27,04,59,6.80
2012,11,27,05,00,6.80
2012,11,27,05,01,6.80
2012,11,27,05,02,6.80
2012,11,27,05,03,6.80
2012,11,27,05,04,6.80
2012,11,27,05,05,6.80
2012,11,27,05,06,6.80
2012,11,27,05,07,6.80
2012,11,27,05,08,6.90
2012,11,27,05,09,6.90
2012,11,27,05,10,7.00
2012,11,27,05,11,7.00
2012,11,27,05,12,7.00
2012,11,27,05,13,7.00
2012,11,27,05,14,7.10
2012,11,27,05,15,7.10
2012,11,27,05,16,7.10
2012,11,27,05,17,7.10
2012,11,27,05,18,7.10
2012,11,27,05,19,7.10
2012,11,27,05,20,7.10
2012,11,27,05,21,7.10
2012,11,27,05,22,7.20
2012,11,27,05,23,7.20
2012,11,27,05,24,7.30
2012,11,27,05,25,7.40
2012,11,27,05,26,7.50
2012,11,27,05,27,7.60
2012,11,27,05,28,7.70
2012,11,27,05,29,7.80
2012,11,27,05,30,7.90
2012,11,27,05,31,8.00
2012,11,27,05,32,8.10
2012,11,27,05,33,8.20
2012,11,27,05,34,8.30
2012,11,27,05,35,8.40
2012,11,27,05,36,8.50
2012,11,27,05,37,8.50
2012,11,27,05,38,8.60
2012,11,27,05,39,8.70
2012,11,27,05,40,8.80
2012,11,27,05,41,8.80
2012,11,27,05,42,8.80
2012,11,27,05,43,8.90
2012,11,27,05,44,8.90
2012,11,27,05,45,8.90
2012,11,27,05,46,8.80
2012,11,27,05,47,8.90
2012,11,27,05,48,8.90
2012,11,27,05,49,8.90
2012,11,27,05,50,8.90
2012,11,27,05,51,8.80
2012,11,27,05,52,8.80
2012,11,27,05,53,8.80
2012,11,27,05,54,8.80
2012,11,27,05,55,8.80
2012,11,27,05,56,8.80
2012,11,27,05,57,8.80
2012,11,27,05,58,8.80
2012,11,27,05,59,8.70
2012,11,27,06,00,8.70
2012,11,27,06,01,8.70
2012,11,27,06,02,8.70
2012,11,27,06,03,8.70
2012,11,27,06,04,8.70
2012,11,27,06,05,8.70
2012,11,27,06,06,8.70
2012,11,27,06,07,8.70
2012,11,27,06,08,8.80
2012,11,27,06,09,8.80
2012,11,27,06,10,8.80
2012,11,27,06,11,8.80
2012,11,27,06,12,8.80
2012,11,27,06,13,8.80
2012,11,27,06,14,8.80
2012,11,27,06,15,8.80
2012,11,27,06,16,8.80
2012,11,27,06,17,8.80
2012,11,27,06,18,8.80
2012,11,27,06,19,8.80
2012,11,27,06,20,8.80
2012,11,27,06,21,8.80
2012,11,27,06,22,8.80
2012,11,27,06,23,8.90
2012,11,27,06,24,8.90
2012,11,27,06,25,8.90
2012,11,27,06,26,8.90
2012,11,27,06,27,9.00
2012,11,27,06,28,9.00
2012,11,27,06,29,9.00
2012,11,27,06,30,9.10
2012,11,27,06,31,9.10
2012,11,27,06,32,9.10
2012,11,27,06,33,9.10
2012,11,27,06,34,9.10
2012,11,27,06,35,9.20
2012,11,27,06,36,9.20
2012,11,27,06,37,9.20
2012,11,27,06,38,9.20
2012,11,27,06,39,9.20
2012,11,27,06,40,9.20
2012,11,27,06,41,9.10
2012,11,27,06,42,9.10
2012,11,27,06,43,9.10
2012,11,27,06,44,9.10
2012,11,27,06,45,9.00
2012,11,27,06,46,9.00
2012,11,27,06,47,9.00
2012,11,27,06,48,9.00
2012,11,27,06,49,9.00
2012,11,27,06,50,9.00
2012,11,27,06,51,9.00
2012,11,27,06,52,9.10
2012,11,27,06,53,9.10
2012,11,27,06,54,9.10
2012,11,27,06,55,9.10
2012,11,27,06,56,9.10
2012,11,27,06,57,9.10
2012,11,27,06,58,9.10
2012,11,27,06,59,9.00
2012,11,27,07,00,9.00
2012,11,27,07,01,9.00
2012,11,27,07,02,9.00
2012,11,27,07,03,9.00
2012,11,27,07,04,9.00
2012,11,27,07,05,9.00
2012,11,27,07,06,9.00
2012,11,27,07,07,8.90
2012,11,27,07,08,8.90
2012,11,27,07,09,8.80
2012,11,27,07,10,8.80
2012,11,27,07,11,8.80
2012,11,27,07,12,8.80
2012,11,27,07,13,8.80
2012,11,27,07,14,8.80
2012,11,27,07,15,8.80
2012,11,27,07,16,8.90
2012,11,27,07,17,8.90
2012,11,27,07,18,8.80
2012,11,27,07,19,8.80
2012,11,27,07,20,8.80
2012,11,27,07,21,8.80
2012,11,27,07,22,8.80
2012,11,27,07,23,8.80
2012,11,27,07,24,8.80
2012,11,27,07,25,8.80
2012,11,27,07,26,8.80
2012,11,27,07,27,8.80
2012,11,27,07,28,8.80
2012,11,27,07,29,8.80
2012,11,27,07,30,8.70
2012,11,27,07,31,8.70
2012,11,27,07,32,8.60
2012,11,27,07,33,8.60
2012,11,27,07,34,8.60
2012,11,27,07,35,8.60
2012,11,27,07,36,8.60
2012,11,27,07,37,8.60
2012,11,27,07,38,8.60
2012,11,27,07,39,8.60
2012,11,27,07,40,8.60
2012,11,27,07,41,8.60
2012,11,27,07,42,8.60
2012,11,27,07,43,8.70
2012,11,27,07,44,8.70
2012,11,27,07,45,8.70
2012,11,27,07,46,8.80
2012,11,27,07,47,8.90
2012,11,27,07,48,8.90
2012,11,27,07,49,9.00
2012,11,27,07,50,9.00
2012,11,27,07,51,9.00
2012,11,27,07,52,9.10
2012,11,27,07,53,9.10
2012,11,27,07,54,9.10
2012,11,27,07,55,9.10
2012,11,27,07,56,9.20
2012,11,27,07,57,9.20
2012,11,27,07,58,9.20
2012,11,27,07,59,9.20
2012,11,27,08,00,9.20
2012,11,27,08,01,9.20
2012,11,27,08,02,9.20
2012,11,27,08,03,9.20
2012,11,27,08,04,9.20
2012,11,27,08,05,9.20
2012,11,27,08,06,9.20
2012,11,27,08,07,9.20
2012,11,27,08,08,9.20
2012,11,27,08,09,9.20
2012,11,27,08,10,9.20
2012,11,27,08,11,9.20
2012,11,27,08,12,9.20
2012,11,27,08,13,9.20
2012,11,27,08,14,9.20
2012,11,27,08,15,9.20
2012,11,27,08,16,9.20
2012,11,27,08,17,9.20
2012,11,27,08,18,9.20
2012,11,27,08,19,9.20
2012,11,27,08,20,9.20
2012,11,27,08,21,9.20
2012,11,27,08,22,9.20
2012,11,27,08,23,9.20
2012,11,27,08,24,9.20
2012,11,27,08,25,9.20
2012,11,27,08,26,9.20
2012,11,27,08,27,9.20
2012,11,27,08,28,9.10
2012,11,27,08,29,9.10
2012,11,27,08,30,9.10
2012,11,27,08,31,9.10
2012,11,27,08,32,9.10
2012,11,27,08,33,9.10
2012,11,27,08,34,9.10
2012,11,27,08,35,9.10
2012,11,27,08,36,9.10
2012,11,27,08,37,9.10
2012,11,27,08,38,9.10
2012,11,27,08,39,9.10
2012,11,27,08,40,9.10
2012,11,27,08,41,9.10
2012,11,27,08,42,9.10
2012,11,27,08,43,9.00
2012,11,27,08,44,9.00
2012,11,27,08,45,9.00
2012,11,27,08,46,9.00
2012,11,27,08,47,9.00
2012,11,27,08,48,9.00
2012,11,27,08,49,9.00
2012,11,27,08,50,9.00
2012,11,27,08,51,9.10
2012,11,27,08,52,9.10
2012,11,27,08,53,9.10
2012,11,27,08,54,9.10
2012,11,27,08,55,9.20
2012,11,27,08,56,9.20
2012,11,27,08,57,9.20
2012,11,27,08,58,9.20
2012,11,27,08,59,9.30
2012,11,27,09,00,9.30
2012,11,27,09,01,9.30
2012,11,27,09,02,9.30
2012,11,27,09,03,9.30
2012,11,27,09,04,9.30
2012,11,27,09,05,9.30
2012,11,27,09,06,9.30
2012,11,27,09,07,9.30
2012,11,27,09,08,9.30
2012,11,27,09,09,9.30
2012,11,27,09,10,9.30
2012,11,27,09,11,9.40
2012,11,27,09,12,9.40
2012,11,27,09,13,9.40
2012,11,27,09,14,9.40
2012,11,27,09,15,9.40
2012,11,27,09,16,9.40
2012,11,27,09,17,9.50
2012,11,27,09,18,9.50
2012,11,27,09,19,9.50
2012,11,27,09,20,9.60
2012,11,27,09,21,9.60
2012,11,27,09,22,9.60
2012,11,27,09,23,9.70
2012,11,27,09,24,9.70
2012,11,27,09,25,9.70
2012,11,27,09,26,9.70
2012,11,27,09,27,9.70
2012,11,27,09,28,9.70
2012,11,27,09,29,9.70
2012,11,27,09,30,9.70
2012,11,27,09,31,9.70
2012,11,27,09,32,9.70
2012,11,27,09,33,9.70
2012,11,27,09,34,9.70
2012,11,27,09,35,9.70
2012,11,27,09,36,9.70
2012,11,27,09,37,9.70
2012,11,27,09,38,9.70
2012,11,27,09,39,9.60
2012,11,27,09,40,9.60
2012,11,27,09,41,9.60
2012,11,27,09,42,9.50
2012,11,27,09,43,9.50
2012,11,27,09,44,9.40
2012,11,27,09,45,9.40
2012,11,27,09,46,9.40
2012,11,27,09,47,9.30
2012,11,27,09,48,9.30
2012,11,27,09,49,9.30
2012,11,27,09,50,9.20
2012,11,27,09,51,9.20
2012,11,27,09,52,9.30
2012,11,27,09,53,9.30
2012,11,27,09,54,9.30
2012,11,27,09,55,9.30
2012,11,27,09,56,9.30
2012,11,27,09,57,9.30
2012,11,27,09,58,9.30
2012,11,27,09,59,9.30
2012,11,27,10,00,9.30
2012,11,27,10,01,9.30
2012,11,27,10,02,9.30
2012,11,27,10,03,9.20
2012,11,27,10,04,9.20
2012,11,27,10,05,9.10
2012,11,27,10,06,9.10
2012,11,27,10,07,9.00
2012,11,27,10,08,8.90
2012,11,27,10,09,8.80
2012,11,27,10,10,8.80
2012,11,27,10,11,8.70
2012,11,27,10,12,8.60
2012,11,27,10,13,8.60
2012,11,27,10,14,8.60
2012,11,27,10,15,8.50
2012,11,27,10,16,8.50
2012,11,27,10,17,8.40
2012,11,27,10,18,8.40
2012,11,27,10,19,8.40
2012,11,27,10,20,8.30
2012,11,27,10,21,8.30
2012,11,27,10,22,8.30
2012,11,27,10,23,8.30
2012,11,27,10,24,8.30
2012,11,27,10,25,8.30
2012,11,27,10,26,8.30
2012,11,27,10,27,8.30
2012,11,27,10,28,8.30
2012,11,27,10,29,8.30
2012,11,27,10,30,8.30
2012,11,27,10,31,8.30
2012,11,27,10,32,8.30
2012,11,27,10,33,8.30
2012,11,27,10,34,8.30
2012,11,27,10,35,8.30
2012,11,27,10,36,8.30
2012,11,27,10,37,8.30
2012,11,27,10,38,8.30
2012,11,27,10,39,8.30
2012,11,27,10,40,8.30
2012,11,27,10,41,8.30
2012,11,27,10,42,8.40
2012,11,27,10,43,8.40
2012,11,27,10,44,8.40
2012,11,27,10,45,8.40
2012,11,27,10,46,8.40
2012,11,27,10,47,8.40
2012,11,27,10,48,8.50
2012,11,27,10,49,8.50
2012,11,27,10,50,8.50
2012,11,27,10,51,8.60
2012,11,27,10,52,8.60
2012,11,27,10,53,8.60
2012,11,27,10,54,8.70
2012,11,27,10,55,8.70
2012,11,27,10,56,8.70
2012,11,27,10,57,8.80
2012,11,27,10,58,8.80
2012,11,27,10,59,8.90
2012,11,27,11,00,8.90
2012,11,27,11,01,9.00
2012,11,27,11,02,9.10
2012,11,27,11,03,9.10
2012,11,27,11,04,9.20
2012,11,27,11,05,9.30
2012,11,27,11,06,9.30
2012,11,27,11,07,9.40
2012,11,27,11,08,9.50
2012,11,27,11,09,9.50
2012,11,27,11,10,9.60
2012,11,27,11,11,9.60
2012,11,27,11,12,9.60
2012,11,27,11,13,9.60
2012,11,27,11,14,9.70
2012,11,27,11,15,9.70
2012,11,27,11,16,9.70
2012,11,27,11,17,9.80
2012,11,27,11,18,9.80
2012,11,27,11,19,9.80
2012,11,27,11,20,9.80
2012,11,27,11,21,9.80
2012,11,27,11,22,9.80
2012,11,27,11,23,9.80
2012,11,27,11,24,9.80
2012,11,27,11,25,9.80
2012,11,27,11,26,9.80
2012,11,27,11,27,9.80
2012,11,27,11,28,9.80
2012,11,27,11,29,9.80
2012,11,27,11,30,9.90
2012,11,27,11,31,9.90
2012,11,27,11,32,9.90
2012,11,27,11,33,9.90
2012,11,27,11,34,9.90
2012,11,27,11,35,9.90
2012,11,27,11,36,9.90
2012,11,27,11,37,9.90
2012,11,27,11,38,9.90
2012,11,27,11,39,10.00
2012,11,27,11,40,10.00
2012,11,27,11,41,10.00
2012,11,27,11,42,10.00
2012,11,27,11,43,10.00
2012,11,27,11,44,10.00
2012,11,27,11,45,10.00
2012,11,27,11,46,10.00
2012,11,27,11,47,10.00
2012,11,27,11,48,10.00
2012,11,27,11,49,10.00
2012,11,27,11,50,10.00
2012,11,27,11,51,10.00
2012,11,27,11,52,10.00
2012,11,27,11,53,10.00
2012,11,27,11,54,10.10
2012,11,27,11,55,10.10
2012,11,27,11,56,10.10
2012,11,27,11,57,10.10
2012,11,27,11,58,10.10
2012,11,27,11,59,10.10
2012,11,27,12,00,10.10
2012,11,27,12,01,10.10
2012,11,27,12,02,10.10
2012,11,27,12,03,10.10
2012,11,27,12,04,10.10
2012,11,27,12,05,10.10
2012,11,27,12,06,10.10
2012,11,27,12,07,10.10
2012,11,27,12,08,10.10
2012,11,27,12,09,10.10
2012,11,27,12,10,10.10
2012,11,27,12,11,10.10
2012,11,27,12,12,10.10
2012,11,27,12,13,10.10
2012,11,27,12,14,10.10
2012,11,27,12,15,10.10
2012,11,27,12,16,10.10
2012,11,27,12,17,10.10
2012,11,27,12,18,10.10
2012,11,27,12,19,10.10
2012,11,27,12,20,10.20
2012,11,27,12,21,10.10
2012,11,27,12,22,10.10
2012,11,27,12,23,10.10
2012,11,27,12,24,10.10
2012,11,27,12,25,10.10
2012,11,27,12,26,10.10
2012,11,27,12,27,10.10
2012,11,27,12,28,10.10
2012,11,27,12,29,10.10
2012,11,27,12,30,10.10
2012,11,27,12,31,10.10
2012,11,27,12,32,10.10
2012,11,27,12,33,10.10
2012,11,27,12,34,10.10
2012,11,27,12,35,10.10
2012,11,27,12,36,10.10
2012,11,27,12,37,10.10
2012,11,27,12,38,10.00
2012,11,27,12,39,10.00
2012,11,27,12,40,10.00
2012,11,27,12,41,10.00
2012,11,27,12,42,10.00
2012,11,27,12,43,10.00
2012,11,27,12,44,10.00
2012,11,27,12,45,9.90
2012,11,27,12,46,9.90
2012,11,27,12,47,9.90
2012,11,27,12,48,9.90
2012,11,27,12,49,9.90
2012,11,27,12,50,9.90
2012,11,27,12,51,9.90
2012,11,27,12,52,9.90
2012,11,27,12,53,9.90
2012,11,27,12,54,9.90
2012,11,27,12,55,9.90
2012,11,27,12,56,9.90
2012,11,27,12,57,9.90
2012,11,27,12,58,9.90
2012,11,27,12,59,9.90
2012,11,27,13,00,9.90
2012,11,27,13,01,9.90
2012,11,27,13,02,9.90
2012,11,27,13,03,9.90
2012,11,27,13,04,10.00
2012,11,27,13,05,10.00
2012,11,27,13,06,10.00
2012,11,27,13,07,10.00
2012,11,27,13,08,10.00
2012,11,27,13,09,10.00
2012,11,27,13,10,10.10
2012,11,27,13,11,10.10
2012,11,27,13,12,10.10
2012,11,27,13,13,10.10
2012,11,27,13,14,10.10
2012,11,27,13,15,10.20
2012,11,27,13,16,10.20
2012,11,27,13,17,10.20
2012,11,27,13,18,10.20
2012,11,27,13,19,10.30
2012,11,27,13,20,10.30
2012,11,27,13,21,10.30
2012,11,27,13,22,10.30
2012,11,27,13,23,10.30
2012,11,27,13,24,10.30
2012,11,27,13,25,10.40
2012,11,27,13,26,10.40
2012,11,27,13,27,10.40
2012,11,27,13,28,10.40
2012,11,27,13,29,10.40
2012,11,27,13,30,10.40
2012,11,27,13,31,10.40
2012,11,27,13,32,10.30
2012,11,27,13,33,10.30
2012,11,27,13,34,10.30
2012,11,27,13,35,10.30
2012,11,27,13,36,10.30
2012,11,27,13,37,10.20
2012,11,27,13,38,10.20
2012,11,27,13,39,10.20
2012,11,27,13,40,10.10
2012,11,27,13,41,10.10
2012,11,27,13,42,10.10
2012,11,27,13,43,10.10
2012,11,27,13,44,10.00
2012,11,27,13,45,10.00
2012,11,27,13,46,10.00
2012,11,27,13,47,10.00
2012,11,27,13,48,10.00
2012,11,27,13,49,9.90
2012,11,27,13,50,9.90
2012,11,27,13,51,9.90
2012,11,27,13,52,9.90
2012,11,27,13,53,9.90
2012,11,27,13,54,9.90
2012,11,27,13,55,9.90
2012,11,27,13,56,9.90
2012,11,27,13,57,9.90
2012,11,27,13,58,9.90
2012,11,27,13,59,9.80
2012,11,27,14,00,9.80
2012,11,27,14,01,9.80
2012,11,27,14,02,9.80
2012,11,27,14,03,9.80
2012,11,27,14,04,9.80
2012,11,27,14,05,9.80
2012,11,27,14,06,9.80
2012,11,27,14,07,9.80
2012,11,27,14,08,9.80
2012,11,27,14,09,9.80
2012,11,27,14,10,9.80
2012,11,27,14,11,9.80
2012,11,27,14,12,9.80
2012,11,27,14,13,9.80
2012,11,27,14,14,9.80
2012,11,27,14,15,9.80
2012,11,27,14,16,9.80
2012,11,27,14,17,9.80
2012,11,27,14,18,9.80
2012,11,27,14,19,9.70
2012,11,27,14,20,9.70
2012,11,27,14,21,9.70
2012,11,27,14,22,9.70
2012,11,27,14,23,9.70
2012,11,27,14,24,9.70
2012,11,27,14,25,9.70
2012,11,27,14,26,9.70
2012,11,27,14,27,9.70
2012,11,27,14,28,9.70
2012,11,27,14,29,9.70
2012,11,27,14,30,9.80
2012,11,27,14,31,9.80
2012,11,27,14,32,9.80
2012,11,27,14,33,9.80
2012,11,27,14,34,9.80
2012,11,27,14,35,9.80
2012,11,27,14,36,9.90
2012,11,27,14,37,9.90
2012,11,27,14,38,9.90
2012,11,27,14,39,9.90
2012,11,27,14,40,9.90
2012,11,27,14,41,9.90
2012,11,27,14,42,9.90
2012,11,27,14,43,9.90
2012,11,27,14,44,9.90
2012,11,27,14,45,9.90
2012,11,27,14,46,9.90
2012,11,27,14,47,10.00
2012,11,27,14,48,10.00
2012,11,27,14,49,10.00
2012,11,27,14,50,10.00
2012,11,27,14,51,10.00
2012,11,27,14,52,10.10
2012,11,27,14,53,10.10
2012,11,27,14,54,10.10
2012,11,27,14,55,10.10
2012,11,27,14,56,10.10
2012,11,27,14,57,10.20
2012,11,27,14,58,10.20
2012,11,27,14,59,10.20
2012,11,27,15,00,10.20
2012,11,27,15,01,10.30
2012,11,27,15,02,10.30
2012,11,27,15,03,10.30
2012,11,27,15,04,10.30
2012,11,27,15,05,10.40
2012,11,27,15,06,10.40
2012,11,27,15,07,10.40
2012,11,27,15,08,10.50
2012,11,27,15,09,10.50
2012,11,27,15,10,10.50
2012,11,27,15,11,10.60
2012,11,27,15,12,10.60
2012,11,27,15,13,10.60
2012,11,27,15,14,10.60
2012,11,27,15,15,10.70
2012,11,27,15,16,10.70
2012,11,27,15,17,10.70
2012,11,27,15,18,10.70
2012,11,27,15,19,10.70
2012,11,27,15,20,10.70
2012,11,27,15,21,10.70
2012,11,27,15,22,10.70
2012,11,27,15,23,10.70
2012,11,27,15,24,10.70
2012,11,27,15,25,10.70
2012,11,27,15,26,10.70
2012,11,27,15,27,10.60
2012,11,27,15,28,10.60
2012,11,27,15,29,10.60
2012,11,27,15,30,10.60
2012,11,27,15,31,10.60
2012,11,27,15,32,10.60
2012,11,27,15,33,10.60
2012,11,27,15,34,10.50
2012,11,27,15,35,10.50
2012,11,27,15,36,10.50
2012,11,27,15,37,10.50
2012,11,27,15,38,10.50
2012,11,27,15,39,10.50
2012,11,27,15,40,10.50
2012,11,27,15,41,10.50
2012,11,27,15,42,10.50
2012,11,27,15,43,10.50
2012,11,27,15,44,10.50
2012,11,27,15,45,10.50
2012,11,27,15,46,10.50
2012,11,27,15,47,10.50
2012,11,27,15,48,10.50
2012,11,27,15,49,10.50
2012,11,27,15,50,10.40
2012,11,27,15,51,10.40
2012,11,27,15,52,10.40
2012,11,27,15,53,10.40
2012,11,27,15,54,10.40
2012,11,27,15,55,10.40
2012,11,27,15,56,10.40
2012,11,27,15,57,10.40
2012,11,27,15,58,10.40
2012,11,27,15,59,10.40
2012,11,27,16,00,10.40
2012,11,27,16,01,10.30
2012,11,27,16,02,10.30
2012,11,27,16,03,10.40
2012,11,27,16,04,10.30
2012,11,27,16,05,10.40
2012,11,27,16,06,10.40
2012,11,27,16,07,10.40
2012,11,27,16,08,10.40
2012,11,27,16,09,10.40
2012,11,27,16,10,10.40
2012,11,27,16,11,10.40
2012,11,27,16,12,10.40
2012,11,27,16,13,10.40
2012,11,27,16,14,10.40
2012,11,27,16,15,10.40
2012,11,27,16,16,10.40
2012,11,27,16,17,10.40
2012,11,27,16,18,10.40
2012,11,27,16,19,10.40
2012,11,27,16,20,10.40
2012,11,27,16,21,10.50
2012,11,27,16,22,10.50
2012,11,27,16,23,10.50
2012,11,27,16,24,10.50
2012,11,27,16,25,10.50
2012,11,27,16,26,10.50
2012,11,27,16,27,10.50
2012,11,27,16,28,10.50
2012,11,27,16,29,10.50
2012,11,27,16,30,10.50
2012,11,27,16,31,10.50
2012,11,27,16,32,10.50
2012,11,27,16,33,10.50
2012,11,27,16,34,10.50
2012,11,27,16,35,10.50
2012,11,27,16,36,10.60
2012,11,27,16,37,10.60
2012,11,27,16,38,10.60
2012,11,27,16,39,10.60
2012,11,27,16,40,10.60
2012,11,27,16,41,10.60
2012,11,27,16,42,10.60
2012,11,27,16,43,10.60
2012,11,27,16,44,10.60
2012,11,27,16,45,10.60
2012,11,27,16,46,10.60
2012,11,27,16,47,10.60
2012,11,27,16,48,10.60
2012,11,27,16,49,10.60
2012,11,27,16,50,10.60
2012,11,27,16,51,10.60
2012,11,27,16,52,10.70
2012,11,27,16,53,10.70
2012,11,27,16,54,10.70
2012,11,27,16,55,10.70
2012,11,27,16,56,10.70
2012,11,27,16,57,10.70
2012,11,27,16,58,10.70
2012,11,27,16,59,10.70
2012,11,27,17,00,10.70
2012,11,27,17,01,10.70
2012,11,27,17,02,10.70
2012,11,27,17,03,10.70
2012,11,27,17,04,10.70
2012,11,27,17,05,10.70
2012,11,27,17,06,10.70
2012,11,27,17,07,10.70
2012,11,27,17,08,10.70
2012,11,27,17,09,10.70
2012,11,27,17,10,10.70
2012,11,27,17,11,10.70
2012,11,27,17,12,10.60
2012,11,27,17,13,10.60
2012,11,27,17,14,10.60
2012,11,27,17,15,10.60
2012,11,27,17,16,10.60
2012,11,27,17,17,10.60
2012,11,27,17,18,10.60
2012,11,27,17,19,10.60
2012,11,27,17,20,10.60
2012,11,27,17,21,10.60
2012,11,27,17,22,10.60
2012,11,27,17,23,10.60
2012,11,27,17,24,10.60
2012,11,27,17,25,10.60
2012,11,27,17,26,10.60
2012,11,27,17,27,10.60
2012,11,27,17,28,10.60
2012,11,27,17,29,10.50
2012,11,27,17,30,10.50
2012,11,27,17,31,10.50
2012,11,27,17,32,10.50
2012,11,27,17,33,10.40
2012,11,27,17,34,10.40
2012,11,27,17,35,10.40
2012,11,27,17,36,10.40
2012,11,27,17,37,10.40
2012,11,27,17,38,10.40
2012,11,27,17,39,10.40
2012,11,27,17,40,10.50
2012,11,27,17,41,10.50
2012,11,27,17,42,10.50
2012,11,27,17,43,10.50
2012,11,27,17,44,10.50
2012,11,27,17,45,10.50
2012,11,27,17,46,10.60
2012,11,27,17,47,10.60
2012,11,27,17,48,10.60
2012,11,27,17,49,10.60
2012,11,27,17,50,10.60
2012,11,27,17,51,10.60
2012,11,27,17,52,10.60
2012,11,27,17,53,10.60